EJA260 CYYZ-KHPN

Flight info

Callsign EJA260
Flight time 0h 54m
Altitude 35000
Route KEPTA3 BMPAH DCT AEVON DCT EXTOL DCT DANZI VALRE1
Aircraft CL60/M-SBDE1E2E3FGHIJ1J3J4J7P2RWXYZ/LB1D1

Departure

Time 2026-05-07 19:38
Airport Toronto Pearson International Airport (CYYZ)

Arrival

Time 2026-05-07 20:32
Airport Westchester County Airport (KHPN)
Time Latitude Longitude Altitude Speed Heading
2026-05-07 19:11 43.67525 -79.62688 566 ft 0 kts 229°
2026-05-07 19:30 43.67524 -79.62689 566 ft 0 kts 228°
2026-05-07 19:31 43.67497 -79.62669 566 ft 11 kts 120°
2026-05-07 19:31 43.67444 -79.62566 564 ft 13 kts 128°
2026-05-07 19:31 43.67474 -79.62456 565 ft 15 kts 46°
2026-05-07 19:31 43.67552 -79.62390 567 ft 13 kts 339°
2026-05-07 19:32 43.67643 -79.62502 568 ft 20 kts 316°
2026-05-07 19:32 43.67735 -79.62624 569 ft 19 kts 315°
2026-05-07 19:32 43.67820 -79.62734 567 ft 16 kts 316°
2026-05-07 19:32 43.67922 -79.62866 565 ft 25 kts 317°
2026-05-07 19:33 43.68045 -79.63027 561 ft 19 kts 316°
2026-05-07 19:33 43.68153 -79.63171 556 ft 23 kts 316°
2026-05-07 19:33 43.68257 -79.63304 553 ft 14 kts 315°
2026-05-07 19:33 43.68342 -79.63416 549 ft 19 kts 316°
2026-05-07 19:34 43.68456 -79.63564 544 ft 25 kts 316°
2026-05-07 19:34 43.68571 -79.63715 541 ft 23 kts 316°
2026-05-07 19:34 43.68695 -79.63877 539 ft 25 kts 316°
2026-05-07 19:34 43.68788 -79.63980 539 ft 11 kts 355°
2026-05-07 19:35 43.68855 -79.63911 541 ft 15 kts 47°
2026-05-07 19:35 43.68956 -79.63763 543 ft 25 kts 46°
2026-05-07 19:35 43.69020 -79.63672 542 ft 11 kts 46°
2026-05-07 19:35 43.69092 -79.63567 546 ft 19 kts 46°
2026-05-07 19:36 43.69193 -79.63432 548 ft 14 kts 19°
2026-05-07 19:36 43.69302 -79.63422 548 ft 14 kts
2026-05-07 19:36 43.69335 -79.63421 547 ft 0 kts 358°
2026-05-07 19:37 43.69376 -79.63452 546 ft 13 kts 317°
2026-05-07 19:38 43.69389 -79.63548 545 ft 19 kts 226°
2026-05-07 19:38 43.69021 -79.64079 541 ft 131 kts 226°
2026-05-07 19:38 43.68272 -79.65183 1108 ft 173 kts 230°
2026-05-07 19:38 43.67442 -79.66428 2133 ft 190 kts 233°
2026-05-07 19:39 43.66596 -79.67866 3192 ft 208 kts 234°
2026-05-07 19:39 43.65639 -79.69532 4127 ft 235 kts 234°
2026-05-07 19:39 43.64598 -79.71359 5214 ft 245 kts 234°
2026-05-07 19:39 43.63551 -79.73201 6345 ft 250 kts 233°
2026-05-07 19:40 43.62217 -79.74754 7459 ft 264 kts 212°
2026-05-07 19:40 43.60450 -79.75577 8482 ft 280 kts 191°
2026-05-07 19:40 43.58509 -79.75349 9539 ft 291 kts 166°
2026-05-07 19:40 43.56755 -79.73897 10450 ft 307 kts 136°
2026-05-07 19:41 43.55528 -79.71410 11303 ft 330 kts 122°
2026-05-07 19:41 43.54362 -79.68585 12487 ft 343 kts 122°
2026-05-07 19:41 43.53177 -79.65743 13775 ft 350 kts 122°
2026-05-07 19:41 43.51967 -79.62839 15027 ft 357 kts 121°
2026-05-07 19:42 43.51046 -79.59641 16201 ft 368 kts 104°
2026-05-07 19:42 43.50855 -79.56110 17270 ft 379 kts 84°
2026-05-07 19:42 43.51424 -79.52550 18251 ft 387 kts 73°
2026-05-07 19:42 43.52129 -79.48982 19243 ft 395 kts 73°
2026-05-07 19:43 43.52731 -79.45274 20216 ft 401 kts 84°
2026-05-07 19:43 43.52659 -79.41436 21182 ft 403 kts 103°
2026-05-07 19:43 43.51802 -79.37763 22018 ft 406 kts 116°
2026-05-07 19:43 43.50714 -79.34202 22834 ft 412 kts 117°
2026-05-07 19:44 43.49596 -79.30526 23672 ft 418 kts 117°
2026-05-07 19:44 43.48465 -79.26809 24501 ft 423 kts 118°
2026-05-07 19:44 43.47338 -79.23112 25198 ft 429 kts 118°
2026-05-07 19:44 43.46164 -79.19272 25814 ft 437 kts 118°
2026-05-07 19:45 43.44975 -79.15386 26406 ft 443 kts 118°
2026-05-07 19:45 43.43768 -79.11458 26944 ft 450 kts 119°
2026-05-07 19:45 43.42531 -79.07455 27444 ft 456 kts 119°
2026-05-07 19:45 43.41281 -79.03419 27952 ft 462 kts 120°
2026-05-07 19:46 43.40004 -78.99300 28454 ft 468 kts 120°
2026-05-07 19:46 43.38731 -78.95204 28918 ft 473 kts 120°
2026-05-07 19:46 43.37412 -78.90963 29357 ft 479 kts 120°
2026-05-07 19:46 43.36108 -78.86777 29751 ft 484 kts 120°
2026-05-07 19:47 43.34771 -78.82494 30136 ft 489 kts 120°
2026-05-07 19:47 43.33423 -78.78182 30500 ft 494 kts 121°
2026-05-07 19:47 43.32062 -78.73835 30892 ft 497 kts 120°
2026-05-07 19:47 43.30686 -78.69445 31287 ft 500 kts 120°
2026-05-07 19:48 43.29313 -78.65072 31684 ft 502 kts 120°
2026-05-07 19:48 43.27934 -78.60687 32090 ft 503 kts 120°
2026-05-07 19:48 43.26544 -78.56276 32449 ft 505 kts 119°
2026-05-07 19:48 43.25145 -78.51844 32783 ft 508 kts 119°
2026-05-07 19:49 43.23756 -78.47452 33102 ft 509 kts 119°
2026-05-07 19:49 43.22331 -78.42954 33431 ft 511 kts 118°
2026-05-07 19:49 43.20925 -78.38525 33744 ft 513 kts 119°
2026-05-07 19:49 43.19383 -78.34116 34040 ft 510 kts 126°
2026-05-07 19:50 43.17466 -78.30039 34331 ft 502 kts 134°
2026-05-07 19:50 43.15319 -78.26346 34657 ft 499 kts 137°
2026-05-07 19:50 43.13130 -78.22664 34870 ft 502 kts 137°
2026-05-07 19:50 43.10919 -78.18951 34911 ft 508 kts 136°
2026-05-07 19:51 43.06420 -78.11406 34902 ft 512 kts 137°
2026-05-07 19:51 43.01940 -78.03912 34911 ft 510 kts 137°
2026-05-07 19:52 42.97442 -77.96413 34903 ft 510 kts 137°
2026-05-07 19:52 42.93202 -77.88607 34891 ft 519 kts 128°
2026-05-07 19:53 42.90076 -77.79594 34881 ft 531 kts 114°
2026-05-07 19:53 42.88044 -77.69872 34887 ft 536 kts 109°
2026-05-07 19:54 42.86109 -77.60138 34889 ft 536 kts 110°
2026-05-07 19:54 42.84139 -77.50306 34890 ft 536 kts 109°
2026-05-07 19:55 42.82172 -77.40551 34887 ft 536 kts 110°
2026-05-07 19:55 42.80202 -77.30844 34893 ft 535 kts 110°
2026-05-07 19:56 42.78214 -77.21107 34888 ft 535 kts 111°
2026-05-07 19:56 42.76221 -77.11401 34895 ft 535 kts 111°
2026-05-07 19:57 42.74204 -77.01631 34888 ft 535 kts 111°
2026-05-07 19:57 42.72196 -76.91953 34881 ft 535 kts 111°
2026-05-07 19:58 42.70167 -76.82227 34886 ft 535 kts 111°
2026-05-07 19:58 42.68140 -76.72555 34882 ft 535 kts 111°
2026-05-07 19:59 42.66098 -76.62884 34882 ft 535 kts 112°
2026-05-07 19:59 42.63579 -76.53448 34884 ft 530 kts 117°
2026-05-07 20:00 42.60944 -76.44087 34892 ft 530 kts 117°
2026-05-07 20:00 42.58306 -76.34747 34885 ft 530 kts 117°
2026-05-07 20:01 42.55671 -76.25440 34884 ft 529 kts 118°
2026-05-07 20:01 42.53025 -76.16123 34878 ft 528 kts 118°
2026-05-07 20:02 42.50361 -76.06776 34877 ft 528 kts 118°
2026-05-07 20:02 42.47716 -75.97534 34867 ft 528 kts 118°
2026-05-07 20:03 42.45055 -75.88262 34872 ft 529 kts 118°
2026-05-07 20:03 42.42395 -75.79026 34877 ft 529 kts 118°
2026-05-07 20:04 42.39713 -75.69746 34864 ft 528 kts 118°
2026-05-07 20:04 42.37029 -75.60494 34868 ft 529 kts 118°
2026-05-07 20:05 42.34339 -75.51253 34870 ft 529 kts 118°
2026-05-07 20:05 42.31629 -75.41979 34864 ft 529 kts 119°
2026-05-07 20:06 42.28948 -75.32830 34693 ft 524 kts 120°
2026-05-07 20:06 42.27606 -75.28256 34133 ft 520 kts 120°
2026-05-07 20:06 42.26282 -75.23755 33527 ft 517 kts 120°
2026-05-07 20:07 42.24969 -75.19309 32821 ft 518 kts 120°
2026-05-07 20:07 42.23640 -75.14818 32097 ft 517 kts 120°
2026-05-07 20:07 42.22318 -75.10346 31447 ft 513 kts 120°
2026-05-07 20:07 42.20998 -75.05894 30766 ft 510 kts 120°
2026-05-07 20:08 42.19684 -75.01467 30096 ft 507 kts 120°
2026-05-07 20:08 42.18381 -74.97101 29419 ft 502 kts 121°
2026-05-07 20:08 42.16853 -74.92956 28754 ft 488 kts 128°
2026-05-07 20:08 42.15214 -74.89051 28124 ft 483 kts 128°
2026-05-07 20:09 42.13574 -74.85137 27465 ft 478 kts 128°
2026-05-07 20:09 42.11951 -74.81265 26853 ft 473 kts 128°
2026-05-07 20:09 42.10337 -74.77419 26209 ft 469 kts 128°
2026-05-07 20:10 42.07173 -74.69896 24979 ft 460 kts 128°
2026-05-07 20:10 42.05622 -74.66213 24403 ft 454 kts 128°
2026-05-07 20:10 42.04080 -74.62560 23791 ft 450 kts 128°
2026-05-07 20:10 42.02547 -74.58929 23208 ft 446 kts 128°
2026-05-07 20:11 42.01023 -74.55327 22606 ft 442 kts 128°
2026-05-07 20:11 41.99514 -74.51762 22025 ft 436 kts 128°
2026-05-07 20:11 41.98019 -74.48235 21454 ft 431 kts 127°
2026-05-07 20:11 41.96545 -74.44762 20878 ft 425 kts 127°
2026-05-07 20:12 41.95101 -74.41363 20346 ft 419 kts 127°
2026-05-07 20:12 41.93686 -74.38033 19781 ft 413 kts 127°
2026-05-07 20:12 41.92267 -74.34703 19255 ft 406 kts 127°
2026-05-07 20:12 41.90891 -74.31473 18734 ft 400 kts 127°
2026-05-07 20:13 41.89508 -74.28233 18187 ft 393 kts 127°
2026-05-07 20:13 41.88169 -74.25098 17687 ft 387 kts 127°
2026-05-07 20:13 41.86826 -74.21960 17162 ft 381 kts 127°
2026-05-07 20:13 41.85468 -74.18973 16673 ft 372 kts 131°
2026-05-07 20:14 41.84040 -74.16159 16174 ft 367 kts 132°
2026-05-07 20:14 41.82594 -74.13322 15682 ft 362 kts 131°
2026-05-07 20:14 41.81208 -74.10600 15219 ft 358 kts 131°
2026-05-07 20:14 41.79809 -74.07860 14743 ft 354 kts 131°
2026-05-07 20:15 41.78438 -74.05175 14287 ft 350 kts 131°
2026-05-07 20:15 41.77062 -74.02483 13820 ft 346 kts 131°
2026-05-07 20:15 41.75701 -73.99824 13362 ft 343 kts 130°
2026-05-07 20:15 41.74375 -73.97237 12908 ft 341 kts 130°
2026-05-07 20:16 41.73035 -73.94625 12461 ft 337 kts 130°
2026-05-07 20:16 41.71712 -73.92046 12011 ft 334 kts 129°
2026-05-07 20:16 41.70416 -73.89522 11569 ft 331 kts 129°
2026-05-07 20:16 41.69108 -73.86984 11126 ft 328 kts 129°
2026-05-07 20:17 41.67594 -73.84808 10670 ft 316 kts 148°
2026-05-07 20:17 41.65712 -73.83511 10220 ft 301 kts 169°
2026-05-07 20:17 41.63671 -73.83130 9865 ft 284 kts 188°
2026-05-07 20:17 41.61742 -73.83452 9504 ft 278 kts 196°
2026-05-07 20:18 41.59861 -73.83943 9147 ft 277 kts 197°
2026-05-07 20:18 41.57946 -73.84439 8773 ft 279 kts 195°
2026-05-07 20:18 41.56054 -73.84927 8411 ft 278 kts 195°
2026-05-07 20:18 41.54146 -73.85420 8043 ft 278 kts 195°
2026-05-07 20:19 41.52243 -73.85911 7675 ft 277 kts 195°
2026-05-07 20:19 41.50322 -73.86405 7295 ft 276 kts 194°
2026-05-07 20:19 41.48440 -73.86890 6928 ft 275 kts 194°
2026-05-07 20:19 41.46564 -73.87373 6573 ft 276 kts 193°
2026-05-07 20:20 41.44664 -73.87740 6188 ft 278 kts 182°
2026-05-07 20:20 41.42758 -73.87273 5822 ft 280 kts 158°
2026-05-07 20:20 41.41094 -73.85954 5656 ft 279 kts 146°
2026-05-07 20:20 41.39470 -73.84456 5468 ft 283 kts 146°
2026-05-07 20:21 41.37853 -73.82979 5266 ft 283 kts 146°
2026-05-07 20:21 41.36219 -73.81488 5059 ft 283 kts 146°
2026-05-07 20:21 41.34595 -73.80009 4859 ft 282 kts 146°
2026-05-07 20:21 41.32983 -73.78542 4657 ft 278 kts 146°
2026-05-07 20:22 41.31416 -73.77118 4472 ft 266 kts 146°
2026-05-07 20:22 41.29911 -73.75751 4286 ft 256 kts 146°
2026-05-07 20:22 41.28447 -73.74425 4099 ft 246 kts 146°
2026-05-07 20:22 41.27065 -73.73173 3923 ft 238 kts 146°
2026-05-07 20:23 41.25755 -73.71987 3758 ft 230 kts 146°
2026-05-07 20:23 41.24448 -73.70806 3596 ft 222 kts 146°
2026-05-07 20:23 41.23167 -73.69649 3433 ft 221 kts 146°
2026-05-07 20:23 41.21888 -73.68495 3268 ft 222 kts 146°
2026-05-07 20:24 41.20606 -73.67339 3116 ft 219 kts 146°
2026-05-07 20:24 41.19383 -73.66236 2964 ft 206 kts 146°
2026-05-07 20:24 41.18206 -73.65176 2816 ft 203 kts 146°
2026-05-07 20:24 41.17037 -73.64123 2659 ft 202 kts 146°
2026-05-07 20:25 41.15883 -73.63084 2516 ft 202 kts 146°
2026-05-07 20:25 41.14714 -73.62035 2360 ft 201 kts 146°
2026-05-07 20:25 41.13560 -73.60996 2226 ft 200 kts 146°
2026-05-07 20:25 41.12408 -73.59962 2071 ft 200 kts 146°
2026-05-07 20:26 41.11239 -73.58967 1980 ft 199 kts 149°
2026-05-07 20:26 41.10047 -73.58013 1986 ft 200 kts 149°
2026-05-07 20:26 41.08854 -73.57058 1984 ft 199 kts 149°
2026-05-07 20:26 41.07693 -73.56130 2000 ft 188 kts 149°
2026-05-07 20:27 41.06594 -73.55273 1972 ft 183 kts 153°
2026-05-07 20:27 41.05409 -73.54684 1925 ft 178 kts 168°
2026-05-07 20:27 41.04184 -73.54496 1884 ft 176 kts 183°
2026-05-07 20:27 41.02983 -73.54695 1837 ft 173 kts 198°
2026-05-07 20:28 41.01865 -73.55261 1787 ft 169 kts 212°
2026-05-07 20:28 41.00900 -73.56142 1743 ft 166 kts 226°
2026-05-07 20:28 41.00141 -73.57253 1702 ft 162 kts 238°
2026-05-07 20:28 40.99592 -73.58556 1661 ft 159 kts 252°
2026-05-07 20:29 40.99283 -73.59937 1617 ft 157 kts 263°
2026-05-07 20:29 40.99207 -73.61365 1580 ft 153 kts 276°
2026-05-07 20:29 40.99355 -73.62728 1517 ft 150 kts 287°
2026-05-07 20:29 40.99708 -73.64010 1503 ft 143 kts 297°
2026-05-07 20:30 41.00216 -73.65110 1450 ft 139 kts 307°
2026-05-07 20:30 41.00873 -73.66053 1423 ft 138 kts 317°
2026-05-07 20:30 41.01639 -73.66800 1398 ft 127 kts 327°
2026-05-07 20:30 41.02386 -73.67368 1272 ft 122 kts 328°
2026-05-07 20:31 41.03097 -73.67908 1123 ft 117 kts 328°
2026-05-07 20:31 41.03796 -73.68449 946 ft 113 kts 327°
2026-05-07 20:31 41.04483 -73.68984 787 ft 119 kts 328°
2026-05-07 20:31 41.05184 -73.69519 613 ft 114 kts 328°
2026-05-07 20:32 41.05881 -73.70051 433 ft 114 kts 327°
2026-05-07 20:32 41.06554 -73.70564 395 ft 102 kts 328°
2026-05-07 20:32 41.07049 -73.70943 413 ft 53 kts 329°
2026-05-07 20:32 41.07323 -73.71152 423 ft 23 kts 329°
2026-05-07 20:33 41.07396 -73.71175 425 ft 7 kts 62°
2026-05-07 20:33 41.07400 -73.71104 425 ft 6 kts 91°
2026-05-07 20:33 41.07399 -73.71027 425 ft 8 kts 92°
2026-05-07 20:33 41.07415 -73.70983 425 ft 7 kts 15°
2026-05-07 20:34 41.07462 -73.71008 426 ft 8 kts 329°
2026-05-07 20:34 41.07506 -73.71024 427 ft 4 kts 34°
2026-05-07 20:34 41.07516 -73.71005 427 ft 0 kts 64°
2026-05-07 20:34 41.07522 -73.70981 427 ft 5 kts 96°
2026-05-07 20:35 41.07478 -73.70939 426 ft 5 kts 112°
2026-05-07 20:35 41.07491 -73.70918 426 ft 0 kts 333°
2026-05-07 20:35 41.07492 -73.70918 427 ft 0 kts 332°